Regional Weather Roundup
Issued by NWS

Home | Current Version | Previous Version | Text Only | Print | Product List | Glossary Off
Versions: 1 2 3 4 5 6 7 8 9 10 11 12 13 14 15 16 17 18 19 20 21 22 23 24 25 26 27 28 29 30 31 32 33 34 35 36 37 38 39 40 41 42 43 44 45 46 47 48 49 50

199
ASUS44 KLIX 200101
RWRLA
LOUISIANA WEATHER ROUNDUP
NATIONAL WEATHER SERVICE NEW ORLEANS LA
800 PM CDT SAT APR 19 2014

NOTE: "FAIR" INDICATES FEW OR NO CLOUDS BELOW 12,000 FEET WITH NO
      SIGNIFICANT WEATHER AND/OR OBSTRUCTIONS TO VISIBILITY.
      SKY/WX - SKY CONDITION AND SIGNIFICANT WEATHER.
      TMP - AIR TEMPERATURE.    DP   - DEWPOINT TEMPERATURE.
      RH  - RELATIVE HUMIDITY.  PRES - PRESSURE.
      HX  - HEAT INDEX.         WCI  - WIND CHILL INDEX.

*  THESE STATIONS ARE NOT NWS OR FAA STATIONS AND ARE NOT UNDER
   NWS QUALITY CONTROL.

LAZ040-048-061>063-065-066-069-200200-
SOUTHEAST LOUISIANA

CITY           SKY/WX    TMP DP  RH WIND       PRES   REMARKS
N.O. AUDUBON     N/A     72  52  50 MISG        N/A
N.O. INTL ARPT PTCLDY    73  53  49 NW5       30.09S
N.O. LAKEFRONT CLEAR     70  61  73 W6        30.10R
N.O. DOWNTOWN* FAIR      75  48  38 CALM      30.10S
SLIDELL        CLEAR     67  56  67 CALM      30.09R
BATON ROUGE    CLEAR     71  53  52 W3        30.10R
BOOTHVILLE     CLEAR     67  61  81 W7        30.10R
BELLE CHASSE   PTCLDY    64  55  72 CALM      30.09R
BOGALUSA*        N/A     68  55  62 N3        30.11R
GALLIANO*      NOT AVBL
NEW ROADS*     NOT AVBL
GONZALES*      FAIR      68  58  72 CALM      30.09S
HAMMOND*       NOT AVBL
HOUMA*         NOT AVBL
PORT FOURCHON* CLEAR     68  59  73 W8        30.13R

$$

LAZ041-044-053-054-200200-
SOUTHWEST LOUISIANA

CITY           SKY/WX    TMP DP  RH WIND       PRES   REMARKS
LAKE CHARLES   PTCLDY    70  60  70 S6        30.11R
LAFAYETTE      CLEAR     70  58  65 CALM      30.11R
PATTERSON      CLEAR     66  57  72 SW7       30.14S
SALT POINT       N/A     70  64  81 VRB3      30.10S
NEW IBERIA     CLEAR     72  51  47 N6        30.12R
CHENAULT AIRPK NOT AVBL

$$

LAZ027-028-200200-
CENTRAL LOUISIANA

CITY           SKY/WX    TMP DP  RH WIND       PRES   REMARKS
FORT POLK      PTCLDY    68  58  70 CALM      30.11R
ALEXANDRIA INT PTCLDY    68  58  70 CALM      30.10R
ALEXANDRIA     PTCLDY    67  57  70 CALM      30.11S

$$

LAZ001-002-200200-
NORTHWEST LOUISIANA

CITY           SKY/WX    TMP DP  RH WIND       PRES   REMARKS
SHREVEPORT     CLOUDY    69  55  60 SE3       30.10F
BARKSDALE AFB  NOT AVBL
DTN SHREVEPORT PTCLDY    70  52  52 E3        30.11S

$$

LAZ014-016-200200-
NORTHEAST LOUISIANA

CITY           SKY/WX    TMP DP  RH WIND       PRES   REMARKS
MONROE         CLEAR     68  56  65 E3        30.13R
TALLULAH       CLEAR     71  55  56 NW3       30.12R

$$




USA.gov is the U.S. government's official web portal to all federal, state and local government web resources and services.